Year,Month,Day,Hour,Minute,Value (Times are PST for temperature in C)
2007,07,20,06,38,14.60
2007,07,20,06,39,14.60
2007,07,20,06,40,14.60
2007,07,20,06,41,14.60
2007,07,20,06,42,14.60
2007,07,20,06,43,14.60
2007,07,20,06,44,14.60
2007,07,20,06,45,14.70
2007,07,20,06,46,14.60
2007,07,20,06,47,14.70
2007,07,20,06,48,14.70
2007,07,20,06,49,14.70
2007,07,20,06,50,14.70
2007,07,20,06,51,14.70
2007,07,20,06,52,14.70
2007,07,20,06,53,14.70
2007,07,20,06,54,14.70
2007,07,20,06,55,14.70
2007,07,20,06,56,14.70
2007,07,20,06,57,14.70
2007,07,20,06,58,14.70
2007,07,20,06,59,14.70
2007,07,20,07,00,14.70
2007,07,20,07,01,14.70
2007,07,20,07,02,14.70
2007,07,20,07,03,14.70
2007,07,20,07,04,14.70
2007,07,20,07,05,14.70
2007,07,20,07,06,14.70
2007,07,20,07,07,14.80
2007,07,20,07,08,14.80
2007,07,20,07,09,14.80
2007,07,20,07,10,14.80
2007,07,20,07,11,14.90
2007,07,20,07,12,14.90
2007,07,20,07,13,14.90
2007,07,20,07,14,15.00
2007,07,20,07,15,15.00
2007,07,20,07,16,15.00
2007,07,20,07,17,15.00
2007,07,20,07,18,15.00
2007,07,20,07,19,15.00
2007,07,20,07,20,15.00
2007,07,20,07,21,15.00
2007,07,20,07,22,15.00
2007,07,20,07,23,15.00
2007,07,20,07,24,15.00
2007,07,20,07,25,15.00
2007,07,20,07,26,15.00
2007,07,20,07,27,15.00
2007,07,20,07,28,15.00
2007,07,20,07,29,15.00
2007,07,20,07,30,15.00
2007,07,20,07,31,15.10
2007,07,20,07,32,15.10
2007,07,20,07,33,15.10
2007,07,20,07,34,15.10
2007,07,20,07,35,15.10
2007,07,20,07,36,15.00
2007,07,20,07,37,15.00
2007,07,20,07,38,15.00
2007,07,20,07,39,15.00
2007,07,20,07,40,15.00
2007,07,20,07,41,15.00
2007,07,20,07,42,15.00
2007,07,20,07,43,15.10
2007,07,20,07,44,15.10
2007,07,20,07,45,15.10
2007,07,20,07,46,15.10
2007,07,20,07,47,15.10
2007,07,20,07,48,15.10
2007,07,20,07,49,15.20
2007,07,20,07,50,15.20
2007,07,20,07,51,15.20
2007,07,20,07,52,15.20
2007,07,20,07,53,15.30
2007,07,20,07,54,15.30
2007,07,20,07,55,15.30
2007,07,20,07,56,15.30
2007,07,20,07,57,15.30
2007,07,20,07,58,15.30
2007,07,20,07,59,15.30
2007,07,20,08,00,15.30
2007,07,20,08,01,15.30
2007,07,20,08,02,15.30
2007,07,20,08,03,15.30
2007,07,20,08,04,15.30
2007,07,20,08,05,15.30
2007,07,20,08,06,15.30
2007,07,20,08,07,15.30
2007,07,20,08,08,15.30
2007,07,20,08,09,15.30
2007,07,20,08,10,15.30
2007,07,20,08,11,15.30
2007,07,20,08,12,15.30
2007,07,20,08,13,15.30
2007,07,20,08,14,15.30
2007,07,20,08,15,15.30
2007,07,20,08,16,15.30
2007,07,20,08,17,15.30
2007,07,20,08,18,15.30
2007,07,20,08,19,15.30
2007,07,20,08,20,15.40
2007,07,20,08,21,15.40
2007,07,20,08,22,15.40
2007,07,20,08,23,15.40
2007,07,20,08,24,15.40
2007,07,20,08,25,15.40
2007,07,20,08,26,15.50
2007,07,20,08,27,15.50
2007,07,20,08,28,15.50
2007,07,20,08,29,15.60
2007,07,20,08,30,15.60
2007,07,20,08,31,15.60
2007,07,20,08,32,15.70
2007,07,20,08,33,15.70
2007,07,20,08,34,15.70
2007,07,20,08,35,15.70
2007,07,20,08,36,15.70
2007,07,20,08,37,15.70
2007,07,20,08,38,15.70
2007,07,20,08,39,15.80
2007,07,20,08,40,15.80
2007,07,20,08,41,15.80
2007,07,20,08,42,15.90
2007,07,20,08,43,15.90
2007,07,20,08,44,15.90
2007,07,20,08,45,15.90
2007,07,20,08,46,16.00
2007,07,20,08,47,16.00
2007,07,20,08,48,16.00
2007,07,20,08,49,16.10
2007,07,20,08,50,16.10
2007,07,20,08,51,16.10
2007,07,20,08,52,16.10
2007,07,20,08,53,16.10
2007,07,20,08,54,16.10
2007,07,20,08,55,16.10
2007,07,20,08,56,16.10
2007,07,20,08,57,16.10
2007,07,20,08,58,16.10
2007,07,20,08,59,16.10
2007,07,20,09,00,16.10
2007,07,20,09,01,16.10
2007,07,20,09,02,16.10
2007,07,20,09,03,16.00
2007,07,20,09,04,16.00
2007,07,20,09,05,16.00
2007,07,20,09,06,15.90
2007,07,20,09,07,15.90
2007,07,20,09,08,15.90
2007,07,20,09,09,15.90
2007,07,20,09,10,15.80
2007,07,20,09,11,15.80
2007,07,20,09,12,15.80
2007,07,20,09,13,15.80
2007,07,20,09,14,15.80
2007,07,20,09,15,15.90
2007,07,20,09,16,15.90
2007,07,20,09,17,15.90
2007,07,20,09,18,15.90
2007,07,20,09,19,15.90
2007,07,20,09,20,15.90
2007,07,20,09,21,15.90
2007,07,20,09,22,15.90
2007,07,20,09,23,16.00
2007,07,20,09,24,16.00
2007,07,20,09,25,16.00
2007,07,20,09,26,16.00
2007,07,20,09,27,16.00
2007,07,20,09,28,16.00
2007,07,20,09,29,16.00
2007,07,20,09,30,16.10
2007,07,20,09,31,16.10
2007,07,20,09,32,16.10
2007,07,20,09,33,16.10
2007,07,20,09,34,16.10
2007,07,20,09,35,16.20
2007,07,20,09,36,16.20
2007,07,20,09,37,16.20
2007,07,20,09,38,16.20
2007,07,20,09,39,16.20
2007,07,20,09,40,16.20
2007,07,20,09,41,16.20
2007,07,20,09,42,16.20
2007,07,20,09,43,16.20
2007,07,20,09,44,16.20
2007,07,20,09,45,16.20
2007,07,20,09,46,16.20
2007,07,20,09,47,16.20
2007,07,20,09,48,16.20
2007,07,20,09,49,16.30
2007,07,20,09,50,16.30
2007,07,20,09,51,16.30
2007,07,20,09,52,16.30
2007,07,20,09,53,16.30
2007,07,20,09,54,16.30
2007,07,20,09,55,16.30
2007,07,20,09,56,16.30
2007,07,20,09,57,16.30
2007,07,20,09,58,16.30
2007,07,20,09,59,16.40
2007,07,20,10,00,16.40
2007,07,20,10,01,16.50
2007,07,20,10,02,16.50
2007,07,20,10,03,16.60
2007,07,20,10,04,16.60
2007,07,20,10,05,16.70
2007,07,20,10,06,16.70
2007,07,20,10,07,16.70
2007,07,20,10,08,16.70
2007,07,20,10,09,16.70
2007,07,20,10,10,16.70
2007,07,20,10,11,16.70
2007,07,20,10,12,16.70
2007,07,20,10,13,16.70
2007,07,20,10,14,16.70
2007,07,20,10,15,16.60
2007,07,20,10,16,16.60
2007,07,20,10,17,16.60
2007,07,20,10,18,16.60
2007,07,20,10,19,16.60
2007,07,20,10,20,16.50
2007,07,20,10,21,16.50
2007,07,20,10,22,16.60
2007,07,20,10,23,16.60
2007,07,20,10,24,16.60
2007,07,20,10,25,16.60
2007,07,20,10,26,16.60
2007,07,20,10,27,16.60
2007,07,20,10,28,16.60
2007,07,20,10,29,16.60
2007,07,20,10,30,16.60
2007,07,20,10,31,16.60
2007,07,20,10,32,16.60
2007,07,20,10,33,16.60
2007,07,20,10,34,16.60
2007,07,20,10,35,16.50
2007,07,20,10,36,16.50
2007,07,20,10,37,16.60
2007,07,20,10,38,16.60
2007,07,20,10,39,16.60
2007,07,20,10,40,16.60
2007,07,20,10,41,16.50
2007,07,20,10,42,16.40
2007,07,20,10,43,16.40
2007,07,20,10,44,16.40
2007,07,20,10,45,16.40
2007,07,20,10,46,16.50
2007,07,20,10,47,16.50
2007,07,20,10,48,16.50
2007,07,20,10,49,16.50
2007,07,20,10,50,16.40
2007,07,20,10,51,16.40
2007,07,20,10,52,16.40
2007,07,20,10,53,16.40
2007,07,20,10,54,16.30
2007,07,20,10,55,16.40
2007,07,20,10,56,16.40
2007,07,20,10,57,16.30
2007,07,20,10,58,16.30
2007,07,20,10,59,16.30
2007,07,20,11,00,16.30
2007,07,20,11,01,16.30
2007,07,20,11,02,16.30
2007,07,20,11,03,16.40
2007,07,20,11,04,16.40
2007,07,20,11,05,16.40
2007,07,20,11,06,16.40
2007,07,20,11,07,16.40
2007,07,20,11,08,16.40
2007,07,20,11,09,16.40
2007,07,20,11,10,16.50
2007,07,20,11,11,16.50
2007,07,20,11,12,16.50
2007,07,20,11,13,16.60
2007,07,20,11,14,16.60
2007,07,20,11,15,16.60
2007,07,20,11,16,16.60
2007,07,20,11,17,16.60
2007,07,20,11,18,16.60
2007,07,20,11,19,16.60
2007,07,20,11,20,16.60
2007,07,20,11,21,16.60
2007,07,20,11,22,16.60
2007,07,20,11,23,16.60
2007,07,20,11,24,16.60
2007,07,20,11,25,16.50
2007,07,20,11,26,16.50
2007,07,20,11,27,16.50
2007,07,20,11,28,16.50
2007,07,20,11,29,16.40
2007,07,20,11,30,16.40
2007,07,20,11,31,16.40
2007,07,20,11,32,16.40
2007,07,20,11,33,16.30
2007,07,20,11,34,16.30
2007,07,20,11,35,16.20
2007,07,20,11,36,16.20
2007,07,20,11,37,16.10
2007,07,20,11,38,16.10
2007,07,20,11,39,16.10
2007,07,20,11,40,16.10
2007,07,20,11,41,16.00
2007,07,20,11,42,16.00
2007,07,20,11,43,16.00
2007,07,20,11,44,16.00
2007,07,20,11,45,16.10
2007,07,20,11,46,16.00
2007,07,20,11,47,16.00
2007,07,20,11,48,16.00
2007,07,20,11,49,16.00
2007,07,20,11,50,16.00
2007,07,20,11,51,15.90
2007,07,20,11,52,15.90
2007,07,20,11,53,15.90
2007,07,20,11,54,15.90
2007,07,20,11,55,15.80
2007,07,20,11,56,15.80
2007,07,20,11,57,15.80
2007,07,20,11,58,15.80
2007,07,20,11,59,15.80
2007,07,20,12,00,15.80
2007,07,20,12,01,15.70
2007,07,20,12,02,15.70
2007,07,20,12,03,15.70
2007,07,20,12,04,15.70
2007,07,20,12,05,15.70
2007,07,20,12,06,15.60
2007,07,20,12,07,15.60
2007,07,20,12,08,15.60
2007,07,20,12,09,15.60
2007,07,20,12,10,15.60
2007,07,20,12,11,15.60
2007,07,20,12,12,15.60
2007,07,20,12,13,15.60
2007,07,20,12,14,15.60
2007,07,20,12,15,15.60
2007,07,20,12,16,15.60
2007,07,20,12,17,15.50
2007,07,20,12,18,15.50
2007,07,20,12,19,15.50
2007,07,20,12,20,15.40
2007,07,20,12,21,15.40
2007,07,20,12,22,15.40
2007,07,20,12,23,15.40
2007,07,20,12,24,15.40
2007,07,20,12,25,15.40
2007,07,20,12,26,15.30
2007,07,20,12,27,15.30
2007,07,20,12,28,15.30
2007,07,20,12,29,15.30
2007,07,20,12,30,15.30
2007,07,20,12,31,15.30
2007,07,20,12,32,15.30
2007,07,20,12,33,15.30
2007,07,20,12,34,15.30
2007,07,20,12,35,15.30
2007,07,20,12,36,15.30
2007,07,20,12,37,15.30
2007,07,20,12,38,15.30
2007,07,20,12,39,15.30
2007,07,20,12,40,15.30
2007,07,20,12,41,15.30
2007,07,20,12,42,15.30
2007,07,20,12,43,15.30
2007,07,20,12,44,15.30
2007,07,20,12,45,15.30
2007,07,20,12,46,15.20
2007,07,20,12,47,15.30
2007,07,20,12,48,15.30
2007,07,20,12,49,15.30
2007,07,20,12,50,15.30
2007,07,20,12,51,15.20
2007,07,20,12,52,15.20
2007,07,20,12,53,15.20
2007,07,20,12,54,15.10
2007,07,20,12,55,15.10
2007,07,20,12,56,15.10
2007,07,20,12,57,15.10
2007,07,20,12,58,15.10
2007,07,20,12,59,15.00
2007,07,20,13,00,15.00
2007,07,20,13,01,15.00
2007,07,20,13,02,15.00
2007,07,20,13,03,15.00
2007,07,20,13,04,15.10
2007,07,20,13,05,15.20
2007,07,20,13,06,15.20
2007,07,20,13,07,15.20
2007,07,20,13,08,15.30
2007,07,20,13,09,15.30
2007,07,20,13,10,15.30
2007,07,20,13,11,15.30
2007,07,20,13,12,15.30
2007,07,20,13,13,15.30
2007,07,20,13,14,15.30
2007,07,20,13,15,15.30
2007,07,20,13,16,15.30
2007,07,20,13,17,15.30
2007,07,20,13,18,15.30
2007,07,20,13,19,15.30
2007,07,20,13,20,15.40
2007,07,20,13,21,15.40
2007,07,20,13,22,15.40
2007,07,20,13,23,15.40
2007,07,20,13,24,15.40
2007,07,20,13,25,15.40
2007,07,20,13,26,15.40
2007,07,20,13,27,15.40
2007,07,20,13,28,15.40
2007,07,20,13,29,15.40
2007,07,20,13,30,15.40
2007,07,20,13,31,15.40
2007,07,20,13,32,15.40
2007,07,20,13,33,15.50
2007,07,20,13,34,15.50
2007,07,20,13,35,15.50
2007,07,20,13,36,15.60
2007,07,20,13,37,15.60
2007,07,20,13,38,15.60
2007,07,20,13,39,15.60
2007,07,20,13,40,15.60
2007,07,20,13,41,15.60
2007,07,20,13,42,15.70
2007,07,20,13,43,15.70
2007,07,20,13,44,15.70
2007,07,20,13,45,15.70
2007,07,20,13,46,15.70
2007,07,20,13,47,15.70
2007,07,20,13,48,15.80
2007,07,20,13,49,15.80
2007,07,20,13,50,15.80
2007,07,20,13,51,15.80
2007,07,20,13,52,15.80
2007,07,20,13,53,15.90
2007,07,20,13,54,15.90
2007,07,20,13,55,15.90
2007,07,20,13,56,15.90
2007,07,20,13,57,15.90
2007,07,20,13,58,16.00
2007,07,20,13,59,16.00
2007,07,20,14,00,16.10
2007,07,20,14,01,16.20
2007,07,20,14,02,16.20
2007,07,20,14,03,16.20
2007,07,20,14,04,16.20
2007,07,20,14,05,16.20
2007,07,20,14,06,16.20
2007,07,20,14,07,16.30
2007,07,20,14,08,16.30
2007,07,20,14,09,16.30
2007,07,20,14,10,16.30
2007,07,20,14,11,16.30
2007,07,20,14,12,16.30
2007,07,20,14,13,16.30
2007,07,20,14,14,16.30
2007,07,20,14,15,16.30
2007,07,20,14,16,16.30
2007,07,20,14,17,16.30
2007,07,20,14,18,16.30
2007,07,20,14,19,16.40
2007,07,20,14,20,16.40
2007,07,20,14,21,16.50
2007,07,20,14,22,16.50
2007,07,20,14,23,16.50
2007,07,20,14,24,16.40
2007,07,20,14,25,16.40
2007,07,20,14,26,16.40
2007,07,20,14,27,16.50
2007,07,20,14,28,16.50
2007,07,20,14,29,16.50
2007,07,20,14,30,16.50
2007,07,20,14,31,16.40
2007,07,20,14,32,16.40
2007,07,20,14,33,16.50
2007,07,20,14,34,16.50
2007,07,20,14,35,16.50
2007,07,20,14,36,16.40
2007,07,20,14,37,16.40
2007,07,20,14,38,16.30
2007,07,20,14,39,16.30
2007,07,20,14,40,16.30
2007,07,20,14,41,16.20
2007,07,20,14,42,16.20
2007,07,20,14,43,16.10
2007,07,20,14,44,16.10
2007,07,20,14,45,16.10
2007,07,20,14,46,16.10
2007,07,20,14,47,16.10
2007,07,20,14,48,16.00
2007,07,20,14,49,16.00
2007,07,20,14,50,16.00
2007,07,20,14,51,16.00
2007,07,20,14,52,16.00
2007,07,20,14,53,16.00
2007,07,20,14,54,16.00
2007,07,20,14,55,16.00
2007,07,20,14,56,16.00
2007,07,20,14,57,16.00
2007,07,20,14,58,16.00
2007,07,20,14,59,15.90
2007,07,20,15,00,15.90
2007,07,20,15,01,15.90
2007,07,20,15,02,15.90
2007,07,20,15,03,16.00
2007,07,20,15,04,16.00
2007,07,20,15,05,16.10
2007,07,20,15,06,16.10
2007,07,20,15,07,16.10
2007,07,20,15,08,16.20
2007,07,20,15,09,16.20
2007,07,20,15,10,16.20
2007,07,20,15,11,16.20
2007,07,20,15,12,16.30
2007,07,20,15,13,16.30
2007,07,20,15,14,16.30
2007,07,20,15,15,16.40
2007,07,20,15,16,16.40
2007,07,20,15,17,16.50
2007,07,20,15,18,16.50
2007,07,20,15,19,16.50
2007,07,20,15,20,16.60
2007,07,20,15,21,16.60
2007,07,20,15,22,16.60
2007,07,20,15,23,16.60
2007,07,20,15,24,16.60
2007,07,20,15,25,16.60
2007,07,20,15,26,16.60
2007,07,20,15,27,16.50
2007,07,20,15,28,16.50
2007,07,20,15,29,16.40
2007,07,20,15,30,16.40
2007,07,20,15,31,16.40
2007,07,20,15,32,16.40
2007,07,20,15,33,16.50
2007,07,20,15,34,16.50
2007,07,20,15,35,16.50
2007,07,20,15,36,16.60
2007,07,20,15,37,16.50
2007,07,20,15,38,16.50
2007,07,20,15,39,16.50
2007,07,20,15,40,16.50
2007,07,20,15,41,16.50
2007,07,20,15,42,16.50
2007,07,20,15,43,16.50
2007,07,20,15,44,16.40
2007,07,20,15,45,16.40
2007,07,20,15,46,16.40
2007,07,20,15,47,16.40
2007,07,20,15,48,16.40
2007,07,20,15,49,16.40
2007,07,20,15,50,16.40
2007,07,20,15,51,16.40
2007,07,20,15,52,16.40
2007,07,20,15,53,16.40
2007,07,20,15,54,16.40
2007,07,20,15,55,16.40
2007,07,20,15,56,16.40
2007,07,20,15,57,16.50
2007,07,20,15,58,16.50
2007,07,20,15,59,16.60
2007,07,20,16,00,16.50
2007,07,20,16,01,16.50
2007,07,20,16,02,16.50
2007,07,20,16,03,16.50
2007,07,20,16,04,16.50
2007,07,20,16,05,16.50
2007,07,20,16,06,16.50
2007,07,20,16,07,16.50
2007,07,20,16,08,16.50
2007,07,20,16,09,16.50
2007,07,20,16,10,16.50
2007,07,20,16,11,16.50
2007,07,20,16,12,16.50
2007,07,20,16,13,16.50
2007,07,20,16,14,16.50
2007,07,20,16,15,16.60
2007,07,20,16,16,16.60
2007,07,20,16,17,16.60
2007,07,20,16,18,16.60
2007,07,20,16,19,16.70
2007,07,20,16,20,16.70
2007,07,20,16,21,16.70
2007,07,20,16,22,16.60
2007,07,20,16,23,16.60
2007,07,20,16,24,16.60
2007,07,20,16,25,16.60
2007,07,20,16,26,16.60
2007,07,20,16,27,16.60
2007,07,20,16,28,16.60
2007,07,20,16,29,16.60
2007,07,20,16,30,16.70
2007,07,20,16,31,16.70
2007,07,20,16,32,16.70
2007,07,20,16,33,16.70
2007,07,20,16,34,16.70
2007,07,20,16,35,16.70
2007,07,20,16,36,16.70
2007,07,20,16,37,16.70
2007,07,20,16,38,16.70
2007,07,20,16,39,16.70
2007,07,20,16,40,16.80
2007,07,20,16,41,16.80
2007,07,20,16,42,16.80
2007,07,20,16,43,16.90
2007,07,20,16,44,16.90
2007,07,20,16,45,16.90
2007,07,20,16,46,16.90
2007,07,20,16,47,16.90
2007,07,20,16,48,16.80
2007,07,20,16,49,16.80
2007,07,20,16,50,16.80
2007,07,20,16,51,16.80
2007,07,20,16,52,16.80
2007,07,20,16,53,16.90
2007,07,20,16,54,16.90
2007,07,20,16,55,17.00
2007,07,20,16,56,17.10
2007,07,20,16,57,17.10
2007,07,20,16,58,17.20
2007,07,20,16,59,17.20
2007,07,20,17,00,17.30
2007,07,20,17,01,17.30
2007,07,20,17,02,17.40
2007,07,20,17,03,17.40
2007,07,20,17,04,17.40
2007,07,20,17,05,17.40
2007,07,20,17,06,17.40
2007,07,20,17,07,17.40
2007,07,20,17,08,17.40
2007,07,20,17,09,17.40
2007,07,20,17,10,17.40
2007,07,20,17,11,17.40
2007,07,20,17,12,17.30
2007,07,20,17,13,17.30
2007,07,20,17,14,17.30
2007,07,20,17,15,17.20
2007,07,20,17,16,17.20
2007,07,20,17,17,17.20
2007,07,20,17,18,17.20
2007,07,20,17,19,17.20
2007,07,20,17,20,17.20
2007,07,20,17,21,17.20
2007,07,20,17,22,17.10
2007,07,20,17,23,17.10
2007,07,20,17,24,17.10
2007,07,20,17,25,17.10
2007,07,20,17,26,17.00
2007,07,20,17,27,17.00
2007,07,20,17,28,17.00
2007,07,20,17,29,17.00
2007,07,20,17,30,16.90
2007,07,20,17,31,16.90
2007,07,20,17,32,16.90
2007,07,20,17,33,16.90
2007,07,20,17,34,16.90
2007,07,20,17,35,16.90
2007,07,20,17,36,16.80
2007,07,20,17,37,16.80
2007,07,20,17,38,16.80
2007,07,20,17,39,16.70
2007,07,20,17,40,16.70
2007,07,20,17,41,16.60
2007,07,20,17,42,16.50
2007,07,20,17,43,16.40
2007,07,20,17,44,16.30
2007,07,20,17,45,16.30
2007,07,20,17,46,16.20
2007,07,20,17,47,16.20
2007,07,20,17,48,16.20
2007,07,20,17,49,16.20
2007,07,20,17,50,16.10
2007,07,20,17,51,16.10
2007,07,20,17,52,16.10
2007,07,20,17,53,16.10
2007,07,20,17,54,16.10
2007,07,20,17,55,16.10
2007,07,20,17,56,16.20
2007,07,20,17,57,16.20
2007,07,20,17,58,16.20
2007,07,20,17,59,16.20
2007,07,20,18,00,16.20
2007,07,20,18,01,16.30
2007,07,20,18,02,16.30
2007,07,20,18,03,16.30
2007,07,20,18,04,16.30
2007,07,20,18,05,16.30
2007,07,20,18,06,16.30
2007,07,20,18,07,16.30
2007,07,20,18,08,16.30
2007,07,20,18,09,16.30
2007,07,20,18,10,16.20
2007,07,20,18,11,16.20
2007,07,20,18,12,16.20
2007,07,20,18,13,16.20
2007,07,20,18,14,16.20
2007,07,20,18,15,16.20
2007,07,20,18,16,16.10
2007,07,20,18,17,16.10
2007,07,20,18,18,16.10
2007,07,20,18,19,16.00
2007,07,20,18,20,15.90
2007,07,20,18,21,15.90
2007,07,20,18,22,15.90
2007,07,20,18,23,15.90
2007,07,20,18,24,15.90
2007,07,20,18,25,15.90
2007,07,20,18,26,15.90
2007,07,20,18,27,15.90
2007,07,20,18,28,16.00
2007,07,20,18,29,15.90
2007,07,20,18,30,15.90
2007,07,20,18,31,15.90
2007,07,20,18,32,15.90
2007,07,20,18,33,15.80
2007,07,20,18,34,15.80
2007,07,20,18,35,15.80
2007,07,20,18,36,15.70
2007,07,20,18,37,15.70
2007,07,20,18,38,15.70
2007,07,20,18,39,15.60
2007,07,20,18,40,15.60
2007,07,20,18,41,15.60
2007,07,20,18,42,15.60
2007,07,20,18,43,15.60
2007,07,20,18,44,15.50
2007,07,20,18,45,15.50
2007,07,20,18,46,15.50
2007,07,20,18,47,15.50
2007,07,20,18,48,15.40
2007,07,20,18,49,15.50
2007,07,20,18,50,15.50
2007,07,20,18,51,15.50
2007,07,20,18,52,15.50
2007,07,20,18,53,15.50
2007,07,20,18,54,15.50
2007,07,20,18,55,15.40
2007,07,20,18,56,15.40
2007,07,20,18,57,15.40
2007,07,20,18,58,15.40
2007,07,20,18,59,15.40
2007,07,20,19,00,15.40
2007,07,20,19,01,15.40
2007,07,20,19,02,15.40
2007,07,20,19,03,15.50
2007,07,20,19,04,15.50
2007,07,20,19,05,15.50
2007,07,20,19,06,15.50
2007,07,20,19,07,15.50
2007,07,20,19,08,15.50
2007,07,20,19,09,15.50
2007,07,20,19,10,15.50
2007,07,20,19,11,15.50
2007,07,20,19,12,15.50
2007,07,20,19,13,15.60
2007,07,20,19,14,15.50
2007,07,20,19,15,15.50
2007,07,20,19,16,15.60
2007,07,20,19,17,15.60
2007,07,20,19,18,15.60
2007,07,20,19,19,15.60
2007,07,20,19,20,15.60
2007,07,20,19,21,15.60
2007,07,20,19,22,15.60
2007,07,20,19,23,15.50
2007,07,20,19,24,15.50
2007,07,20,19,25,15.50
2007,07,20,19,26,15.50
2007,07,20,19,27,15.50
2007,07,20,19,28,15.50
2007,07,20,19,29,15.50
2007,07,20,19,30,15.60
2007,07,20,19,31,15.60
2007,07,20,19,32,15.60
2007,07,20,19,33,15.50
2007,07,20,19,34,15.50
2007,07,20,19,35,15.50
2007,07,20,19,36,15.50
2007,07,20,19,37,15.60
2007,07,20,19,38,15.50
2007,07,20,19,39,15.50
2007,07,20,19,40,15.50
2007,07,20,19,41,15.40
2007,07,20,19,42,15.40
2007,07,20,19,43,15.40
2007,07,20,19,44,15.40
2007,07,20,19,45,15.40
2007,07,20,19,46,15.40
2007,07,20,19,47,15.50
2007,07,20,19,48,15.50
2007,07,20,19,49,15.50
2007,07,20,19,50,15.50
2007,07,20,19,51,15.50
2007,07,20,19,52,15.60
2007,07,20,19,53,15.60
2007,07,20,19,54,15.60
2007,07,20,19,55,15.60
2007,07,20,19,56,15.60
2007,07,20,19,57,15.70
2007,07,20,19,58,15.70
2007,07,20,19,59,15.70
2007,07,20,20,00,15.70
2007,07,20,20,01,15.70
2007,07,20,20,02,15.70
2007,07,20,20,03,15.70
2007,07,20,20,04,15.60
2007,07,20,20,05,15.60
2007,07,20,20,06,15.60
2007,07,20,20,07,15.60
2007,07,20,20,08,15.60
2007,07,20,20,09,15.70
2007,07,20,20,10,15.70
2007,07,20,20,11,15.60
2007,07,20,20,12,15.60
2007,07,20,20,13,15.60
2007,07,20,20,14,15.60
2007,07,20,20,15,15.60
2007,07,20,20,16,15.60
2007,07,20,20,17,15.60
2007,07,20,20,18,15.60
2007,07,20,20,19,15.60
2007,07,20,20,20,15.60
2007,07,20,20,21,15.60
2007,07,20,20,22,15.60
2007,07,20,20,23,15.50
2007,07,20,20,24,15.50
2007,07,20,20,25,15.50
2007,07,20,20,26,15.50
2007,07,20,20,27,15.50
2007,07,20,20,28,15.40
2007,07,20,20,29,15.40
2007,07,20,20,30,15.40
2007,07,20,20,31,15.40
2007,07,20,20,32,15.40
2007,07,20,20,33,15.40
2007,07,20,20,34,15.40
2007,07,20,20,35,15.40
2007,07,20,20,36,15.30
2007,07,20,20,37,15.30
2007,07,20,20,38,15.30
2007,07,20,20,39,15.30
2007,07,20,20,40,15.30
2007,07,20,20,41,15.30
2007,07,20,20,42,15.30
2007,07,20,20,43,15.30
2007,07,20,20,44,15.20
2007,07,20,20,45,15.20
2007,07,20,20,46,15.20
2007,07,20,20,47,15.20
2007,07,20,20,48,15.20
2007,07,20,20,49,15.20
2007,07,20,20,50,15.20
2007,07,20,20,51,15.20
2007,07,20,20,52,15.20
2007,07,20,20,53,15.20
2007,07,20,20,54,15.20
2007,07,20,20,55,15.20
2007,07,20,20,56,15.20
2007,07,20,20,57,15.10
2007,07,20,20,58,15.10
2007,07,20,20,59,15.10
2007,07,20,21,00,15.00
2007,07,20,21,01,15.00
2007,07,20,21,02,15.00
2007,07,20,21,03,15.00
2007,07,20,21,04,15.00
2007,07,20,21,05,15.00
2007,07,20,21,06,15.00
2007,07,20,21,07,15.00
2007,07,20,21,08,15.00
2007,07,20,21,09,15.00
2007,07,20,21,10,15.00
2007,07,20,21,11,15.00
2007,07,20,21,12,15.00
2007,07,20,21,13,15.00
2007,07,20,21,14,15.00
2007,07,20,21,15,15.00
2007,07,20,21,16,15.00
2007,07,20,21,17,15.00
2007,07,20,21,18,15.00
2007,07,20,21,19,15.00
2007,07,20,21,20,15.00
2007,07,20,21,21,15.00
2007,07,20,21,22,15.00
2007,07,20,21,23,15.00
2007,07,20,21,24,15.00
2007,07,20,21,25,15.00
2007,07,20,21,26,15.00
2007,07,20,21,27,15.00
2007,07,20,21,28,15.00
2007,07,20,21,29,15.00
2007,07,20,21,30,15.00
2007,07,20,21,31,15.00
2007,07,20,21,32,15.00
2007,07,20,21,33,15.00
2007,07,20,21,34,15.00
2007,07,20,21,35,15.00
2007,07,20,21,36,15.00
2007,07,20,21,37,15.00
2007,07,20,21,38,15.00
2007,07,20,21,39,15.00
2007,07,20,21,40,15.00
2007,07,20,21,41,15.00
2007,07,20,21,42,15.00
2007,07,20,21,43,15.00
2007,07,20,21,44,15.00
2007,07,20,21,45,15.00
2007,07,20,21,46,15.00
2007,07,20,21,47,15.00
2007,07,20,21,48,15.00
2007,07,20,21,49,15.00
2007,07,20,21,50,15.00
2007,07,20,21,51,15.00
2007,07,20,21,52,14.90
2007,07,20,21,53,14.90
2007,07,20,21,54,14.90
2007,07,20,21,55,14.90
2007,07,20,21,56,14.90
2007,07,20,21,57,14.90
2007,07,20,21,58,14.80
2007,07,20,21,59,14.80
2007,07,20,22,00,14.80
2007,07,20,22,01,14.80
2007,07,20,22,02,14.80
2007,07,20,22,03,14.80
2007,07,20,22,04,14.70
2007,07,20,22,05,14.70
2007,07,20,22,06,14.70
2007,07,20,22,07,14.70
2007,07,20,22,08,14.70
2007,07,20,22,09,14.60
2007,07,20,22,10,14.60
2007,07,20,22,11,14.60
2007,07,20,22,12,14.60
2007,07,20,22,13,14.60
2007,07,20,22,14,14.60
2007,07,20,22,15,14.60
2007,07,20,22,16,14.60
2007,07,20,22,17,14.60
2007,07,20,22,18,14.60
2007,07,20,22,19,14.60
2007,07,20,22,20,14.60
2007,07,20,22,21,14.60
2007,07,20,22,22,14.60
2007,07,20,22,23,14.50
2007,07,20,22,24,14.50
2007,07,20,22,25,14.50
2007,07,20,22,26,14.50
2007,07,20,22,27,14.50
2007,07,20,22,28,14.40
2007,07,20,22,29,14.40
2007,07,20,22,30,14.40
2007,07,20,22,31,14.40
2007,07,20,22,32,14.40
2007,07,20,22,33,14.40
2007,07,20,22,34,14.40
2007,07,20,22,35,14.40
2007,07,20,22,36,14.40
2007,07,20,22,37,14.40
2007,07,20,22,38,14.40
2007,07,20,22,39,14.40
2007,07,20,22,40,14.40
